EN

Hourly Weather Bissau

Today, 30 November, Monday

Time Temperature Precipitation Wind Pressure Humidity
00:00 +15°C° 0 mm 1 mps 736 mmHg 25%
01:00 +14°C° 0 mm 1 mps 736 mmHg 27%
02:00 +14°C° 0 mm 1 mps 735 mmHg 29%
03:00 +13°C° 0 mm 1 mps 735 mmHg 30%
04:00 +12°C° 0 mm 0 mps 735 mmHg 31%
05:00 +12°C° 0 mm 0 mps 735 mmHg 32%
06:00 +14°C° 0 mm 0 mps 736 mmHg 27%
07:00 +17°C° 0 mm 0 mps 737 mmHg 23%
08:00 +19°C° 0 mm 0 mps 737 mmHg 18%
09:00 +21°C° 0 mm 0 mps 737 mmHg 16%
10:00 +23°C° 0 mm 0 mps 738 mmHg 13%
11:00 +25°C° 0 mm 0 mps 738 mmHg 11%
12:00 +28°C° 0 mm 1 mps 737 mmHg 10%
13:00 +29°C° 0 mm 2 mps 736 mmHg 9%
14:00 +30°C° 0 mm 2 mps 736 mmHg 8%
15:00 +28°C° 0 mm 2 mps 736 mmHg 10%
16:00 +26°C° 0 mm 2 mps 735 mmHg 11%
17:00 +24°C° 0 mm 3 mps 735 mmHg 12%
18:00 +21°C° 0 mm 2 mps 736 mmHg 14%
19:00 +20°C° 0 mm 2 mps 736 mmHg 15%
20:00 +19°C° 0 mm 1 mps 736 mmHg 17%
21:00 +18°C° 0 mm 1 mps 736 mmHg 18%
22:00 +18°C° 0 mm 1 mps 736 mmHg 19%
23:00 +15°C° 0 mm 0 mps 736 mmHg 20%

Tomorrow, 1 December, Tuesday

Time Temperature Precipitation Wind Pressure Humidity
00:00 +15°C° 0 mm 0 mps 736 mmHg 20%
01:00 +14°C° 0 mm 0 mps 736 mmHg 20%
02:00 +14°C° 0 mm 0 mps 735 mmHg 21%
03:00 +14°C° 0 mm 0 mps 735 mmHg 21%
04:00 +13°C° 0 mm 0 mps 735 mmHg 22%
05:00 +13°C° 0 mm 0 mps 735 mmHg 22%
06:00 +15°C° 0 mm 0 mps 736 mmHg 20%
07:00 +18°C° 0 mm 0 mps 737 mmHg 18%
08:00 +20°C° 0 mm 0 mps 737 mmHg 16%
09:00 +22°C° 0 mm 0 mps 738 mmHg 14%
10:00 +25°C° 0 mm 0 mps 738 mmHg 12%
11:00 +27°C° 0 mm 0 mps 738 mmHg 10%
12:00 +30°C° 0 mm 1 mps 737 mmHg 10%
13:00 +30°C° 0 mm 1 mps 737 mmHg 9%
14:00 +31°C° 0 mm 2 mps 736 mmHg 9%
15:00 +29°C° 0 mm 2 mps 736 mmHg 11%
16:00 +26°C° 0 mm 2 mps 735 mmHg 13%
17:00 +24°C° 0 mm 2 mps 735 mmHg 15%
18:00 +23°C° 0 mm 2 mps 735 mmHg 16%
19:00 +21°C° 0 mm 2 mps 736 mmHg 18%
20:00 +19°C° 0 mm 2 mps 736 mmHg 20%
21:00 +19°C° 0 mm 1 mps 736 mmHg 21%
22:00 +19°C° 0 mm 1 mps 736 mmHg 22%
23:00 +18°C° 0 mm 1 mps 736 mmHg 23%

Day after tomorrow, 2 December, Wednesday

Time Temperature Precipitation Wind Pressure Humidity
00:00 +15°C° 0 mm 0 mps 735 mmHg 25%
01:00 +15°C° 0 mm 0 mps 735 mmHg 26%
02:00 +14°C° 0 mm 0 mps 735 mmHg 28%
03:00 +14°C° 0 mm 0 mps 735 mmHg 30%
04:00 +14°C° 0 mm 0 mps 735 mmHg 33%
05:00 +13°C° 0 mm 0 mps 735 mmHg 35%
06:00 +16°C° 0 mm 0 mps 736 mmHg 30%
07:00 +20°C° 0 mm 1 mps 736 mmHg 24%
08:00 +22°C° 0 mm 1 mps 737 mmHg 19%
09:00 +24°C° 0 mm 1 mps 737 mmHg 17%
10:00 +26°C° 0 mm 1 mps 737 mmHg 14%
11:00 +29°C° 0 mm 1 mps 737 mmHg 12%
12:00 +29°C° 0 mm 2 mps 736 mmHg 11%
13:00 +30°C° 0 mm 2 mps 735 mmHg 10%
14:00 +31°C° 0 mm 3 mps 735 mmHg 10%
15:00 +29°C° 0 mm 2 mps 734 mmHg 11%
16:00 +26°C° 0 mm 2 mps 734 mmHg 13%
17:00 +24°C° 0 mm 2 mps 733 mmHg 15%
18:00 +23°C° 0 mm 2 mps 734 mmHg 16%
19:00 +20°C° 0 mm 2 mps 734 mmHg 17%
20:00 +19°C° 0 mm 2 mps 734 mmHg 18%
21:00 +18°C° 0 mm 2 mps 734 mmHg 21%
22:00 +18°C° 0 mm 1 mps 734 mmHg 24%
23:00 +18°C° 0 mm 1 mps 734 mmHg 27%

3 December, Thursday

Time Temperature Precipitation Wind Pressure Humidity
00:00 +16°C° 0 mm 1 mps 734 mmHg 28%
01:00 +16°C° 0 mm 1 mps 733 mmHg 30%
02:00 +15°C° 0 mm 1 mps 733 mmHg 32%
03:00 +15°C° 0 mm 1 mps 733 mmHg 34%
04:00 +14°C° 0 mm 1 mps 733 mmHg 37%
05:00 +13°C° 0 mm 0 mps 733 mmHg 39%
06:00 +15°C° 0 mm 0 mps 734 mmHg 32%
07:00 +17°C° 0 mm 0 mps 735 mmHg 25%
08:00 +20°C° 0 mm 0 mps 735 mmHg 19%
09:00 +22°C° 0 mm 0 mps 736 mmHg 16%
10:00 +24°C° 0 mm 0 mps 736 mmHg 13%
11:00 +29°C° 0 mm 1 mps 736 mmHg 10%
12:00 +30°C° 0 mm 1 mps 735 mmHg 10%
13:00 +30°C° 0 mm 2 mps 735 mmHg 9%
14:00 +31°C° 0 mm 2 mps 734 mmHg 8%
15:00 +29°C° 0 mm 2 mps 734 mmHg 10%
16:00 +26°C° 0 mm 2 mps 733 mmHg 12%
17:00 +23°C° 0 mm 2 mps 733 mmHg 14%
18:00 +21°C° 0 mm 2 mps 733 mmHg 15%
19:00 +20°C° 0 mm 2 mps 733 mmHg 16%
20:00 +19°C° 0 mm 2 mps 734 mmHg 17%
21:00 +19°C° 0 mm 2 mps 734 mmHg 18%
22:00 +18°C° 0 mm 2 mps 733 mmHg 18%
23:00 +17°C° 0 mm 2 mps 733 mmHg 19%

4 December, Friday

Time Temperature Precipitation Wind Pressure Humidity
00:00 +17°C° 0 mm 2 mps 733 mmHg 20%
01:00 +16°C° 0 mm 1 mps 733 mmHg 21%
02:00 +16°C° 0 mm 1 mps 733 mmHg 22%
03:00 +16°C° 0 mm 1 mps 732 mmHg 24%
04:00 +15°C° 0 mm 1 mps 732 mmHg 27%
05:00 +15°C° 0 mm 1 mps 732 mmHg 29%
06:00 +17°C° 0 mm 2 mps 733 mmHg 25%
07:00 +19°C° 0 mm 2 mps 734 mmHg 21%
08:00 +21°C° 0 mm 2 mps 734 mmHg 17%
09:00 +25°C° 0 mm 2 mps 735 mmHg 14%
10:00 +27°C° 0 mm 1 mps 735 mmHg 12%
11:00 +30°C° 0 mm 1 mps 735 mmHg 10%
12:00 +30°C° 0 mm 1 mps 734 mmHg 9%
13:00 +31°C° 0 mm 1 mps 734 mmHg 8%
14:00 +32°C° 0 mm 1 mps 733 mmHg 8%
15:00 +29°C° 0 mm 1 mps 733 mmHg 9%
16:00 +26°C° 0 mm 1 mps 732 mmHg 11%
17:00 +24°C° 0 mm 2 mps 732 mmHg 12%
18:00 +23°C° 0 mm 2 mps 733 mmHg 14%
19:00 +21°C° 0 mm 3 mps 733 mmHg 16%
20:00 +21°C° 0 mm 3 mps 733 mmHg 17%
21:00 +20°C° 0 mm 3 mps 733 mmHg 20%
22:00 +20°C° 0 mm 3 mps 733 mmHg 23%
23:00 +19°C° 0 mm 3 mps 733 mmHg 25%

5 December, Saturday

Time Temperature Precipitation Wind Pressure Humidity
00:00 +18°C° 0 mm 3 mps 733 mmHg 26%
01:00 +18°C° 0 mm 3 mps 733 mmHg 27%
02:00 +17°C° 0 mm 2 mps 733 mmHg 28%
03:00 +17°C° 0 mm 2 mps 733 mmHg 27%
04:00 +16°C° 0 mm 2 mps 733 mmHg 27%
05:00 +16°C° 0 mm 1 mps 732 mmHg 26%
06:00 +17°C° 0 mm 2 mps 733 mmHg 24%
07:00 +19°C° 0 mm 2 mps 734 mmHg 22%
08:00 +21°C° 0 mm 2 mps 735 mmHg 21%
09:00 +24°C° 0 mm 2 mps 735 mmHg 18%
10:00 +27°C° 0 mm 2 mps 735 mmHg 15%
11:00 +29°C° 0 mm 2 mps 735 mmHg 13%
12:00 +30°C° 0 mm 2 mps 734 mmHg 11%
13:00 +31°C° 0 mm 1 mps 733 mmHg 10%
14:00 +32°C° 0 mm 1 mps 733 mmHg 9%
15:00 +29°C° 0 mm 1 mps 733 mmHg 10%
16:00 +27°C° 0 mm 2 mps 732 mmHg 12%
17:00 +24°C° 0 mm 2 mps 732 mmHg 13%
18:00 +23°C° 0 mm 2 mps 732 mmHg 15%
19:00 +21°C° 0 mm 2 mps 733 mmHg 17%
20:00 +20°C° 0 mm 2 mps 733 mmHg 19%
21:00 +19°C° 0 mm 2 mps 733 mmHg 24%
22:00 +19°C° 0 mm 1 mps 733 mmHg 28%
23:00 +18°C° 0 mm 1 mps 733 mmHg 32%
Show more